Time,TemperatureF,DewpointF,PressureIn,WindDirection,WindDirectionDegrees,WindSpeedMPH,WindSpeedGustMPH,Humidity,HourlyPrecipIn,Conditions,Clouds,dailyrainin,SolarRadiationWatts/m^2,SoftwareType,DateUTC
2013-07-30 00:22:00,63.0,27.0,-100.00,NW,310,0.0,3.0,25,0.00,,,0.00,0.000000,,2013-07-30 06:22:00,
2013-07-30 00:32:00,63.0,27.0,-100.00,NW,310,0.0,3.0,25,0.00,,,0.00,0.000000,,2013-07-30 06:32:00,
2013-07-30 00:43:00,63.0,27.0,-100.00,NW,310,0.0,3.0,25,0.00,,,0.00,0.000000,,2013-07-30 06:43:00,
2013-07-30 00:52:00,63.0,27.0,-100.00,NW,310,0.0,3.0,25,0.00,,,0.00,0.000000,,2013-07-30 06:52:00,
2013-07-30 01:22:00,62.0,31.0,-100.00,ENE,74,0.0,2.0,31,0.00,,,0.00,0.000000,,2013-07-30 07:22:00,
2013-07-30 01:33:00,62.0,31.0,-100.00,ENE,74,0.0,2.0,31,0.00,,,0.00,0.000000,,2013-07-30 07:33:00,
2013-07-30 01:43:00,62.0,31.0,-100.00,ENE,74,0.0,2.0,31,0.00,,,0.00,0.000000,,2013-07-30 07:43:00,
2013-07-30 01:53:00,62.0,31.0,-100.00,ENE,74,0.0,2.0,31,0.00,,,0.00,0.000000,,2013-07-30 07:53:00,
2013-07-30 02:22:00,61.0,29.0,-100.00,East,89,0.0,3.0,30,0.00,,,0.00,0.000000,,2013-07-30 08:22:00,
2013-07-30 02:33:00,61.0,29.0,-100.00,East,89,0.0,3.0,30,0.00,,,0.00,0.000000,,2013-07-30 08:33:00,
2013-07-30 02:42:00,61.0,29.0,-100.00,East,89,0.0,3.0,30,0.00,,,0.00,0.000000,,2013-07-30 08:42:00,
2013-07-30 02:52:00,61.0,29.0,-100.00,East,89,0.0,3.0,30,0.00,,,0.00,0.000000,,2013-07-30 08:52:00,
2013-07-30 03:32:00,60.0,29.0,-100.00,NE,54,1.0,4.0,31,0.00,,,0.00,0.000000,,2013-07-30 09:32:00,
2013-07-30 03:43:00,60.0,29.0,-100.00,NE,54,1.0,4.0,31,0.00,,,0.00,0.000000,,2013-07-30 09:43:00,
2013-07-30 03:53:00,60.0,29.0,-100.00,NE,54,1.0,4.0,31,0.00,,,0.00,0.000000,,2013-07-30 09:53:00,
2013-07-30 04:43:00,60.0,32.0,-100.00,East,92,3.0,10.0,35,0.00,,,0.00,0.000000,,2013-07-30 10:43:00,
2013-07-30 04:52:00,60.0,32.0,-100.00,East,92,3.0,10.0,35,0.00,,,0.00,0.000000,,2013-07-30 10:52:00,
2013-07-30 05:22:00,61.0,35.0,-100.00,ENE,78,1.0,4.0,37,0.00,,,0.00,0.000000,,2013-07-30 11:22:00,
2013-07-30 05:33:00,61.0,35.0,-100.00,ENE,78,1.0,4.0,37,0.00,,,0.00,0.000000,,2013-07-30 11:33:00,
2013-07-30 05:43:00,61.0,35.0,-100.00,ENE,78,1.0,4.0,37,0.00,,,0.00,0.000000,,2013-07-30 11:43:00,
2013-07-30 05:53:00,61.0,35.0,-100.00,ENE,78,1.0,4.0,37,0.00,,,0.00,0.000000,,2013-07-30 11:53:00,
2013-07-30 06:22:00,59.0,37.0,-100.00,East,95,1.0,3.0,43,0.00,,,0.00,0.000000,,2013-07-30 12:22:00,
2013-07-30 06:33:00,59.0,37.0,-100.00,East,95,1.0,3.0,43,0.00,,,0.00,0.000000,,2013-07-30 12:33:00,
2013-07-30 06:42:00,59.0,37.0,-100.00,East,95,1.0,3.0,43,0.00,,,0.00,0.000000,,2013-07-30 12:42:00,
2013-07-30 06:53:00,59.0,37.0,-100.00,East,95,1.0,3.0,43,0.00,,,0.00,0.000000,,2013-07-30 12:53:00,
2013-07-30 07:22:00,58.0,37.0,-100.00,ESE,104,2.0,3.0,46,0.00,,,0.00,4.000000,,2013-07-30 13:22:00,
2013-07-30 07:32:00,58.0,37.0,-100.00,ESE,104,2.0,3.0,46,0.00,,,0.00,4.000000,,2013-07-30 13:32:00,
2013-07-30 07:42:00,58.0,37.0,-100.00,ESE,104,2.0,3.0,46,0.00,,,0.00,4.000000,,2013-07-30 13:42:00,
2013-07-30 07:52:00,58.0,37.0,-100.00,ESE,104,2.0,3.0,46,0.00,,,0.00,4.000000,,2013-07-30 13:52:00,
2013-07-30 08:22:00,60.0,37.0,-100.00,East,100,1.0,3.0,42,0.00,,,0.00,62.000000,,2013-07-30 14:22:00,
2013-07-30 08:32:00,60.0,37.0,-100.00,East,100,1.0,3.0,42,0.00,,,0.00,62.000000,,2013-07-30 14:32:00,
2013-07-30 08:43:00,60.0,37.0,-100.00,East,100,1.0,3.0,42,0.00,,,0.00,62.000000,,2013-07-30 14:43:00,
2013-07-30 08:53:00,60.0,37.0,-100.00,East,100,1.0,3.0,42,0.00,,,0.00,62.000000,,2013-07-30 14:53:00,
2013-07-30 09:33:00,63.0,40.0,-100.00,East,94,2.0,4.0,43,0.00,,,0.00,121.000000,,2013-07-30 15:33:00,
2013-07-30 09:43:00,63.0,40.0,-100.00,East,94,2.0,4.0,43,0.00,,,0.00,121.000000,,2013-07-30 15:43:00,
2013-07-30 09:52:00,63.0,40.0,-100.00,East,94,2.0,4.0,43,0.00,,,0.00,121.000000,,2013-07-30 15:52:00,
2013-07-30 10:43:00,71.0,40.0,-100.00,SSW,195,1.0,4.0,32,0.00,,,0.00,305.000000,,2013-07-30 16:43:00,
2013-07-30 10:52:00,71.0,40.0,-100.00,SSW,195,1.0,4.0,32,0.00,,,0.00,305.000000,,2013-07-30 16:52:00,
2013-07-30 11:32:00,78.0,39.0,-100.00,East,93,1.0,4.0,25,0.00,,,0.00,616.000000,,2013-07-30 17:32:00,
2013-07-30 11:43:00,78.0,39.0,-100.00,East,93,1.0,4.0,25,0.00,,,0.00,616.000000,,2013-07-30 17:43:00,
2013-07-30 11:53:00,78.0,39.0,-100.00,East,93,1.0,4.0,25,0.00,,,0.00,616.000000,,2013-07-30 17:53:00,
2013-07-30 12:23:00,78.0,37.0,-100.00,West,276,3.0,8.0,23,0.00,,,0.00,698.000000,,2013-07-30 18:23:00,
2013-07-30 12:32:00,78.0,37.0,-100.00,West,276,3.0,8.0,23,0.00,,,0.00,698.000000,,2013-07-30 18:32:00,
2013-07-30 12:42:00,78.0,37.0,-100.00,West,276,3.0,8.0,23,0.00,,,0.00,698.000000,,2013-07-30 18:42:00,
2013-07-30 12:52:00,78.0,37.0,-100.00,West,276,3.0,8.0,23,0.00,,,0.00,698.000000,,2013-07-30 18:52:00,
2013-07-30 13:33:00,79.0,33.0,-100.00,West,261,3.0,8.0,19,0.00,,,0.00,734.000000,,2013-07-30 19:33:00,
2013-07-30 13:43:00,79.0,33.0,-100.00,West,261,3.0,8.0,19,0.00,,,0.00,734.000000,,2013-07-30 19:43:00,
2013-07-30 13:52:00,79.0,33.0,-100.00,West,261,3.0,8.0,19,0.00,,,0.00,734.000000,,2013-07-30 19:52:00,
2013-07-30 14:22:00,79.0,32.0,-100.00,WSW,249,5.0,13.0,18,0.00,,,0.00,730.000000,,2013-07-30 20:22:00,
2013-07-30 14:32:00,79.0,32.0,-100.00,WSW,249,5.0,13.0,18,0.00,,,0.00,730.000000,,2013-07-30 20:32:00,
2013-07-30 14:43:00,79.0,32.0,-100.00,WSW,249,5.0,13.0,18,0.00,,,0.00,730.000000,,2013-07-30 20:43:00,
2013-07-30 14:52:00,79.0,32.0,-100.00,WSW,249,5.0,13.0,18,0.00,,,0.00,730.000000,,2013-07-30 20:52:00,
2013-07-30 15:32:00,82.0,30.0,-100.00,West,272,3.0,13.0,15,0.00,,,0.00,742.000000,,2013-07-30 21:32:00,
2013-07-30 15:42:00,82.0,30.0,-100.00,West,272,3.0,13.0,15,0.00,,,0.00,742.000000,,2013-07-30 21:42:00,
2013-07-30 15:52:00,82.0,30.0,-100.00,West,272,3.0,13.0,15,0.00,,,0.00,742.000000,,2013-07-30 21:52:00,
2013-07-30 16:32:00,83.0,32.0,-100.00,West,277,4.0,12.0,16,0.00,,,0.00,775.000000,,2013-07-30 22:32:00,
2013-07-30 16:43:00,83.0,32.0,-100.00,West,277,4.0,12.0,16,0.00,,,0.00,775.000000,,2013-07-30 22:43:00,
2013-07-30 16:52:00,83.0,32.0,-100.00,West,277,4.0,12.0,16,0.00,,,0.00,775.000000,,2013-07-30 22:52:00,
2013-07-30 17:22:00,85.0,27.0,-100.00,WSW,240,3.0,13.0,12,0.00,,,0.00,755.000000,,2013-07-30 23:22:00,
2013-07-30 17:32:00,85.0,27.0,-100.00,WSW,240,3.0,13.0,12,0.00,,,0.00,755.000000,,2013-07-30 23:32:00,
2013-07-30 17:42:00,85.0,27.0,-100.00,WSW,240,3.0,13.0,12,0.00,,,0.00,755.000000,,2013-07-30 23:42:00,
2013-07-30 17:53:00,85.0,27.0,-100.00,WSW,240,3.0,13.0,12,0.00,,,0.00,755.000000,,2013-07-30 23:53:00,
2013-07-30 18:22:00,79.0,24.0,-100.00,West,281,2.0,12.0,13,0.00,,,0.00,365.000000,,2013-07-31 00:22:00,
2013-07-30 18:32:00,79.0,24.0,-100.00,West,281,2.0,12.0,13,0.00,,,0.00,365.000000,,2013-07-31 00:32:00,
2013-07-30 18:43:00,79.0,24.0,-100.00,West,281,2.0,12.0,13,0.00,,,0.00,365.000000,,2013-07-31 00:43:00,
2013-07-30 18:53:00,79.0,24.0,-100.00,West,281,2.0,12.0,13,0.00,,,0.00,365.000000,,2013-07-31 00:53:00,
2013-07-30 19:22:00,78.0,21.0,-100.00,WNW,293,3.0,10.0,12,0.00,,,0.00,195.000000,,2013-07-31 01:22:00,
2013-07-30 19:32:00,78.0,21.0,-100.00,WNW,293,3.0,10.0,12,0.00,,,0.00,195.000000,,2013-07-31 01:32:00,
2013-07-30 19:42:00,78.0,21.0,-100.00,WNW,293,3.0,10.0,12,0.00,,,0.00,195.000000,,2013-07-31 01:42:00,
2013-07-30 19:52:00,78.0,21.0,-100.00,WNW,293,3.0,10.0,12,0.00,,,0.00,195.000000,,2013-07-31 01:52:00,
2013-07-30 20:22:00,81.0,24.0,-100.00,WNW,284,1.0,5.0,12,0.00,,,0.00,154.000000,,2013-07-31 02:22:00,
2013-07-30 20:32:00,81.0,24.0,-100.00,WNW,284,1.0,5.0,12,0.00,,,0.00,154.000000,,2013-07-31 02:32:00,
2013-07-30 20:42:00,81.0,24.0,-100.00,WNW,284,1.0,5.0,12,0.00,,,0.00,154.000000,,2013-07-31 02:42:00,
2013-07-30 20:52:00,81.0,24.0,-100.00,WNW,284,1.0,5.0,12,0.00,,,0.00,154.000000,,2013-07-31 02:52:00,